Year,Month,Day,Hour,Minute,Value (Times are PST for temperature in C)
2015,06,25,00,00,16.50
2015,06,25,00,01,16.50
2015,06,25,00,02,16.50
2015,06,25,00,03,16.50
2015,06,25,00,04,16.50
2015,06,25,00,05,16.50
2015,06,25,00,06,16.50
2015,06,25,00,07,16.40
2015,06,25,00,08,16.40
2015,06,25,00,09,16.40
2015,06,25,00,10,16.40
2015,06,25,00,11,16.40
2015,06,25,00,12,16.40
2015,06,25,00,13,16.40
2015,06,25,00,14,16.30
2015,06,25,00,15,16.30
2015,06,25,00,16,16.30
2015,06,25,00,17,16.30
2015,06,25,00,18,16.20
2015,06,25,00,19,16.20
2015,06,25,00,20,16.20
2015,06,25,00,21,16.20
2015,06,25,00,22,16.10
2015,06,25,00,23,16.10
2015,06,25,00,24,16.10
2015,06,25,00,25,16.10
2015,06,25,00,26,16.00
2015,06,25,00,27,16.00
2015,06,25,00,28,16.00
2015,06,25,00,29,15.90
2015,06,25,00,30,15.90
2015,06,25,00,31,15.90
2015,06,25,00,32,15.90
2015,06,25,00,33,15.90
2015,06,25,00,34,15.80
2015,06,25,00,35,15.80
2015,06,25,00,36,15.80
2015,06,25,00,37,15.80
2015,06,25,00,38,15.80
2015,06,25,00,39,15.80
2015,06,25,00,40,15.80
2015,06,25,00,41,15.80
2015,06,25,00,42,15.80
2015,06,25,00,43,15.80
2015,06,25,00,44,15.80
2015,06,25,00,45,15.80
2015,06,25,00,46,15.80
2015,06,25,00,47,15.80
2015,06,25,00,48,15.80
2015,06,25,00,49,15.80
2015,06,25,00,50,15.80
2015,06,25,00,51,15.80
2015,06,25,00,52,15.80
2015,06,25,00,53,15.80
2015,06,25,00,54,15.80
2015,06,25,00,55,15.80
2015,06,25,00,56,15.80
2015,06,25,00,57,15.80
2015,06,25,00,58,15.80
2015,06,25,00,59,15.80
2015,06,25,01,00,15.80
2015,06,25,01,01,15.80
2015,06,25,01,02,15.90
2015,06,25,01,03,15.90
2015,06,25,01,04,15.90
2015,06,25,01,05,15.90
2015,06,25,01,06,15.90
2015,06,25,01,07,15.90
2015,06,25,01,08,15.90
2015,06,25,01,09,15.90
2015,06,25,01,10,15.90
2015,06,25,01,11,15.90
2015,06,25,01,12,15.90
2015,06,25,01,13,15.90
2015,06,25,01,14,15.90
2015,06,25,01,15,15.90
2015,06,25,01,16,15.90
2015,06,25,01,17,15.90
2015,06,25,01,18,15.90
2015,06,25,01,19,15.90
2015,06,25,01,20,15.90
2015,06,25,01,21,15.90
2015,06,25,01,22,15.90
2015,06,25,01,23,15.90
2015,06,25,01,24,15.80
2015,06,25,01,25,15.80
2015,06,25,01,26,15.80
2015,06,25,01,27,15.80
2015,06,25,01,28,15.80
2015,06,25,01,29,15.80
2015,06,25,01,30,15.80
2015,06,25,01,31,15.80
2015,06,25,01,32,15.80
2015,06,25,01,33,15.80
2015,06,25,01,34,15.80
2015,06,25,01,35,15.80
2015,06,25,01,36,15.80
2015,06,25,01,37,15.80
2015,06,25,01,38,15.80
2015,06,25,01,39,15.80
2015,06,25,01,40,15.80
2015,06,25,01,41,15.80
2015,06,25,01,42,15.80
2015,06,25,01,43,15.80
2015,06,25,01,44,15.80
2015,06,25,01,45,15.80
2015,06,25,01,46,15.80
2015,06,25,01,47,15.80
2015,06,25,01,48,15.80
2015,06,25,01,49,15.80
2015,06,25,01,50,15.70
2015,06,25,01,51,15.70
2015,06,25,01,52,15.70
2015,06,25,01,53,15.70
2015,06,25,01,54,15.70
2015,06,25,01,55,15.70
2015,06,25,01,56,15.70
2015,06,25,01,57,15.70
2015,06,25,01,58,15.70
2015,06,25,01,59,15.70
2015,06,25,02,00,15.70
2015,06,25,02,01,15.60
2015,06,25,02,02,15.60
2015,06,25,02,03,15.60
2015,06,25,02,04,15.60
2015,06,25,02,05,15.60
2015,06,25,02,06,15.60
2015,06,25,02,07,15.60
2015,06,25,02,08,15.60
2015,06,25,02,09,15.60
2015,06,25,02,10,15.60
2015,06,25,02,11,15.50
2015,06,25,02,12,15.60
2015,06,25,02,13,15.60
2015,06,25,02,14,15.60
2015,06,25,02,15,15.60
2015,06,25,02,16,15.60
2015,06,25,02,17,15.60
2015,06,25,02,18,15.60
2015,06,25,02,19,15.60
2015,06,25,02,20,15.60
2015,06,25,02,21,15.60
2015,06,25,02,22,15.60
2015,06,25,02,23,15.60
2015,06,25,02,24,15.60
2015,06,25,02,25,15.60
2015,06,25,02,26,15.60
2015,06,25,02,27,15.60
2015,06,25,02,28,15.60
2015,06,25,02,29,15.60
2015,06,25,02,30,15.60
2015,06,25,02,31,15.50
2015,06,25,02,32,15.50
2015,06,25,02,33,15.50
2015,06,25,02,34,15.50
2015,06,25,02,35,15.50
2015,06,25,02,36,15.50
2015,06,25,02,37,15.50
2015,06,25,02,38,15.50
2015,06,25,02,39,15.50
2015,06,25,02,40,15.50
2015,06,25,02,41,15.40
2015,06,25,02,42,15.40
2015,06,25,02,43,15.40
2015,06,25,02,44,15.40
2015,06,25,02,45,15.40
2015,06,25,02,46,15.50
2015,06,25,02,47,15.50
2015,06,25,02,48,15.50
2015,06,25,02,49,15.50
2015,06,25,02,50,15.50
2015,06,25,02,51,15.50
2015,06,25,02,52,15.50
2015,06,25,02,53,15.50
2015,06,25,02,54,15.50
2015,06,25,02,55,15.50
2015,06,25,02,56,15.50
2015,06,25,02,57,15.50
2015,06,25,02,58,15.50
2015,06,25,02,59,15.50
2015,06,25,03,00,15.50
2015,06,25,03,01,15.50
2015,06,25,03,02,15.50
2015,06,25,03,03,15.50
2015,06,25,03,04,15.50
2015,06,25,03,05,15.50
2015,06,25,03,06,15.50
2015,06,25,03,07,15.50
2015,06,25,03,08,15.40
2015,06,25,03,09,15.40
2015,06,25,03,10,15.40
2015,06,25,03,11,15.40
2015,06,25,03,12,15.40
2015,06,25,03,13,15.40
2015,06,25,03,14,15.40
2015,06,25,03,15,15.40
2015,06,25,03,16,15.40
2015,06,25,03,17,15.40
2015,06,25,03,18,15.40
2015,06,25,03,19,15.40
2015,06,25,03,20,15.40
2015,06,25,03,21,15.40
2015,06,25,03,22,15.30
2015,06,25,03,23,15.30
2015,06,25,03,24,15.30
2015,06,25,03,25,15.30
2015,06,25,03,26,15.30
2015,06,25,03,27,15.30
2015,06,25,03,28,15.30
2015,06,25,03,29,15.40
2015,06,25,03,30,15.40
2015,06,25,03,31,15.40
2015,06,25,03,32,15.40
2015,06,25,03,33,15.40
2015,06,25,03,34,15.40
2015,06,25,03,35,15.40
2015,06,25,03,36,15.30
2015,06,25,03,37,15.30
2015,06,25,03,38,15.30
2015,06,25,03,39,15.30
2015,06,25,03,40,15.30
2015,06,25,03,41,15.30
2015,06,25,03,42,15.30
2015,06,25,03,43,15.30
2015,06,25,03,44,15.30
2015,06,25,03,45,15.30
2015,06,25,03,46,15.30
2015,06,25,03,47,15.30
2015,06,25,03,48,15.20
2015,06,25,03,49,15.20
2015,06,25,03,50,15.20
2015,06,25,03,51,15.20
2015,06,25,03,52,15.20
2015,06,25,03,53,15.20
2015,06,25,03,54,15.20
2015,06,25,03,55,15.20
2015,06,25,03,56,15.20
2015,06,25,03,57,15.20
2015,06,25,03,58,15.20
2015,06,25,03,59,15.20
2015,06,25,04,00,15.20
2015,06,25,04,01,15.20
2015,06,25,04,02,15.20
2015,06,25,04,03,15.10
2015,06,25,05,02,14.90
2015,06,25,05,03,14.90
2015,06,25,05,04,14.90
2015,06,25,05,05,14.90
2015,06,25,05,06,14.90
2015,06,25,05,07,14.90
2015,06,25,05,08,14.90
2015,06,25,05,09,14.90
2015,06,25,05,10,14.90
2015,06,25,05,11,14.90
2015,06,25,05,12,14.90
2015,06,25,05,13,14.90
2015,06,25,05,14,14.90
2015,06,25,05,15,14.90
2015,06,25,05,16,14.90
2015,06,25,05,17,14.90
2015,06,25,05,18,14.90
2015,06,25,05,19,14.90
2015,06,25,05,20,14.90
2015,06,25,05,21,14.90
2015,06,25,05,22,14.90
2015,06,25,05,23,14.90
2015,06,25,05,24,14.90
2015,06,25,05,25,14.90
2015,06,25,05,26,14.90
2015,06,25,05,27,14.90
2015,06,25,05,28,14.90
2015,06,25,05,29,14.90
2015,06,25,05,30,14.90
2015,06,25,05,31,14.90
2015,06,25,05,32,14.90
2015,06,25,05,33,14.90
2015,06,25,05,34,14.90
2015,06,25,05,35,14.90
2015,06,25,05,36,14.90
2015,06,25,05,37,15.00
2015,06,25,05,38,14.90
2015,06,25,05,39,14.90
2015,06,25,05,40,14.90
2015,06,25,05,41,14.90
2015,06,25,05,42,14.90
2015,06,25,05,43,14.90
2015,06,25,05,44,14.90
2015,06,25,05,45,14.90
2015,06,25,05,46,14.90
2015,06,25,05,47,14.90
2015,06,25,05,48,14.90
2015,06,25,05,49,14.90
2015,06,25,05,50,14.90
2015,06,25,05,51,14.90
2015,06,25,05,52,14.90
2015,06,25,05,53,14.90
2015,06,25,05,54,14.90
2015,06,25,05,55,14.90
2015,06,25,05,56,14.90
2015,06,25,05,57,14.90
2015,06,25,05,58,14.90
2015,06,25,05,59,14.90
2015,06,25,06,00,14.90
2015,06,25,06,01,14.90
2015,06,25,06,02,15.00
2015,06,25,06,03,15.00
2015,06,25,06,04,15.00
2015,06,25,06,05,15.00
2015,06,25,06,06,15.00
2015,06,25,06,07,15.00
2015,06,25,06,08,15.00
2015,06,25,06,09,15.00
2015,06,25,06,10,15.10
2015,06,25,06,11,15.10
2015,06,25,06,12,15.00
2015,06,25,06,13,15.10
2015,06,25,06,14,15.10
2015,06,25,06,15,15.10
2015,06,25,06,16,15.10
2015,06,25,06,17,15.10
2015,06,25,06,18,15.10
2015,06,25,06,19,15.10
2015,06,25,06,20,15.10
2015,06,25,06,21,15.10
2015,06,25,06,22,15.10
2015,06,25,06,23,15.10
2015,06,25,06,24,15.10
2015,06,25,06,25,15.10
2015,06,25,06,26,15.10
2015,06,25,06,27,15.10
2015,06,25,06,28,15.10
2015,06,25,06,29,15.10
2015,06,25,06,30,15.10
2015,06,25,06,31,15.10
2015,06,25,06,32,15.10
2015,06,25,06,33,15.10
2015,06,25,06,34,15.10
2015,06,25,06,35,15.10
2015,06,25,06,36,15.10
2015,06,25,06,37,15.10
2015,06,25,06,38,15.10
2015,06,25,06,39,15.10
2015,06,25,06,40,15.10
2015,06,25,06,41,15.10
2015,06,25,06,42,15.10
2015,06,25,06,43,15.10
2015,06,25,06,44,15.10
2015,06,25,06,45,15.10
2015,06,25,06,46,15.10
2015,06,25,06,47,15.10
2015,06,25,06,48,15.20
2015,06,25,06,49,15.20
2015,06,25,06,50,15.20
2015,06,25,06,51,15.20
2015,06,25,06,52,15.20
2015,06,25,06,53,15.20
2015,06,25,06,54,15.30
2015,06,25,06,55,15.30
2015,06,25,06,56,15.30
2015,06,25,06,57,15.30
2015,06,25,06,58,15.40
2015,06,25,06,59,15.40
2015,06,25,07,00,15.40
2015,06,25,07,01,15.40
2015,06,25,07,02,15.40
2015,06,25,07,03,15.40
2015,06,25,07,04,15.40
2015,06,25,07,05,15.40
2015,06,25,07,06,15.40
2015,06,25,07,07,15.40
2015,06,25,07,08,15.40
2015,06,25,07,09,15.40
2015,06,25,07,10,15.40
2015,06,25,07,11,15.40
2015,06,25,07,12,15.40
2015,06,25,07,13,15.40
2015,06,25,07,14,15.40
2015,06,25,07,15,15.40
2015,06,25,07,16,15.40
2015,06,25,07,17,15.40
2015,06,25,07,18,15.40
2015,06,25,07,19,15.50
2015,06,25,07,20,15.50
2015,06,25,07,21,15.50
2015,06,25,07,22,15.50
2015,06,25,07,23,15.50
2015,06,25,07,24,15.50
2015,06,25,07,25,15.50
2015,06,25,07,26,15.60
2015,06,25,07,27,15.60
2015,06,25,07,28,15.60
2015,06,25,07,29,15.60
2015,06,25,07,30,15.60
2015,06,25,07,31,15.60
2015,06,25,07,32,15.60
2015,06,25,07,33,15.60
2015,06,25,07,34,15.60
2015,06,25,07,35,15.70
2015,06,25,07,36,15.70
2015,06,25,07,37,15.70
2015,06,25,07,38,15.70
2015,06,25,07,39,15.70
2015,06,25,07,40,15.70
2015,06,25,07,41,15.70
2015,06,25,07,42,15.70
2015,06,25,07,43,15.70
2015,06,25,07,44,15.70
2015,06,25,07,45,15.80
2015,06,25,07,46,15.80
2015,06,25,07,47,15.80
2015,06,25,07,48,15.80
2015,06,25,07,49,15.80
2015,06,25,07,50,15.80
2015,06,25,07,51,15.80
2015,06,25,07,52,15.80
2015,06,25,07,53,15.80
2015,06,25,07,54,15.80
2015,06,25,07,55,15.80
2015,06,25,07,56,15.80
2015,06,25,07,57,15.80
2015,06,25,07,58,15.80
2015,06,25,07,59,15.90
2015,06,25,08,00,15.90
2015,06,25,08,01,15.90
2015,06,25,08,02,15.90
2015,06,25,08,03,16.00
2015,06,25,08,04,16.00
2015,06,25,08,05,16.00
2015,06,25,08,06,16.00
2015,06,25,08,07,16.10
2015,06,25,08,08,16.10
2015,06,25,08,09,16.10
2015,06,25,08,10,16.10
2015,06,25,08,11,16.10
2015,06,25,08,12,16.20
2015,06,25,08,13,16.20
2015,06,25,08,14,16.20
2015,06,25,08,15,16.20
2015,06,25,08,16,16.20
2015,06,25,08,17,16.20
2015,06,25,08,18,16.30
2015,06,25,08,19,16.30
2015,06,25,08,20,16.30
2015,06,25,08,21,16.30
2015,06,25,08,22,16.30
2015,06,25,08,23,16.30
2015,06,25,08,24,16.40
2015,06,25,08,25,16.40
2015,06,25,08,26,16.40
2015,06,25,08,27,16.50
2015,06,25,08,28,16.50
2015,06,25,08,29,16.50
2015,06,25,08,30,16.60
2015,06,25,08,31,16.60
2015,06,25,08,32,16.70
2015,06,25,08,33,16.70
2015,06,25,08,34,16.70
2015,06,25,08,35,16.80
2015,06,25,08,36,16.80
2015,06,25,08,37,16.80
2015,06,25,08,38,16.80
2015,06,25,08,39,16.80
2015,06,25,08,40,16.80
2015,06,25,08,41,16.90
2015,06,25,08,42,16.90
2015,06,25,08,43,16.90
2015,06,25,08,44,16.90
2015,06,25,08,45,16.90
2015,06,25,08,46,16.90
2015,06,25,08,47,17.00
2015,06,25,08,48,17.00
2015,06,25,08,49,17.00
2015,06,25,08,50,17.00
2015,06,25,08,51,17.00
2015,06,25,08,52,17.00
2015,06,25,08,53,17.00
2015,06,25,08,54,17.10
2015,06,25,08,55,17.10
2015,06,25,08,56,17.10
2015,06,25,08,57,17.10
2015,06,25,08,58,17.10
2015,06,25,08,59,17.20
2015,06,25,09,00,17.20
2015,06,25,09,01,17.20
2015,06,25,09,02,17.20
2015,06,25,09,03,17.20
2015,06,25,09,04,17.20
2015,06,25,09,05,17.20
2015,06,25,09,06,17.20
2015,06,25,09,07,17.20
2015,06,25,09,08,17.20
2015,06,25,09,09,17.20
2015,06,25,09,10,17.20
2015,06,25,09,11,17.30
2015,06,25,09,12,17.30
2015,06,25,09,13,17.30
2015,06,25,09,14,17.30
2015,06,25,09,15,17.30
2015,06,25,09,16,17.40
2015,06,25,09,17,17.40
2015,06,25,09,18,17.40
2015,06,25,09,19,17.40
2015,06,25,09,20,17.40
2015,06,25,09,21,17.40
2015,06,25,09,22,17.40
2015,06,25,09,23,17.40
2015,06,25,09,24,17.50
2015,06,25,09,25,17.50
2015,06,25,09,26,17.50
2015,06,25,09,27,17.50
2015,06,25,09,28,17.50
2015,06,25,09,29,17.50
2015,06,25,09,30,17.60
2015,06,25,09,31,17.60
2015,06,25,09,32,17.60
2015,06,25,09,33,17.60
2015,06,25,09,34,17.60
2015,06,25,09,35,17.60
2015,06,25,09,36,17.60
2015,06,25,09,37,17.60
2015,06,25,09,38,17.70
2015,06,25,09,39,17.70
2015,06,25,09,40,17.70
2015,06,25,09,41,17.70
2015,06,25,09,42,17.60
2015,06,25,09,43,17.60
2015,06,25,09,44,17.60
2015,06,25,09,45,17.70
2015,06,25,09,46,17.70
2015,06,25,09,47,17.70
2015,06,25,09,48,17.70
2015,06,25,09,49,17.70
2015,06,25,09,50,17.70
2015,06,25,09,51,17.70
2015,06,25,09,52,17.70
2015,06,25,09,53,17.70
2015,06,25,09,54,17.70
2015,06,25,09,55,17.70
2015,06,25,09,56,17.70
2015,06,25,09,57,17.70
2015,06,25,09,58,17.70
2015,06,25,09,59,17.70
2015,06,25,10,00,17.70
2015,06,25,10,01,17.80
2015,06,25,10,02,17.80
2015,06,25,10,03,17.80
2015,06,25,10,04,17.80
2015,06,25,10,05,17.80
2015,06,25,10,06,17.80
2015,06,25,10,07,17.90
2015,06,25,10,08,17.90
2015,06,25,10,09,18.00
2015,06,25,10,10,18.00
2015,06,25,10,11,18.10
2015,06,25,10,12,18.10
2015,06,25,10,13,18.10
2015,06,25,10,14,18.10
2015,06,25,10,15,18.10
2015,06,25,10,16,18.10
2015,06,25,10,17,18.00
2015,06,25,10,18,18.00
2015,06,25,10,19,18.00
2015,06,25,10,20,18.00
2015,06,25,10,21,18.00
2015,06,25,10,22,17.90
2015,06,25,10,23,17.90
2015,06,25,10,24,17.90
2015,06,25,10,25,18.00
2015,06,25,10,26,18.00
2015,06,25,10,27,18.10
2015,06,25,10,28,18.10
2015,06,25,10,29,18.00
2015,06,25,10,30,18.00
2015,06,25,10,31,18.00
2015,06,25,10,32,18.00
2015,06,25,10,33,18.00
2015,06,25,10,34,18.00
2015,06,25,10,35,18.00
2015,06,25,10,36,18.00
2015,06,25,10,37,18.10
2015,06,25,10,38,18.10
2015,06,25,10,39,18.10
2015,06,25,10,40,18.10
2015,06,25,10,41,18.20
2015,06,25,10,42,18.20
2015,06,25,10,43,18.20
2015,06,25,10,44,18.30
2015,06,25,10,45,18.30
2015,06,25,10,46,18.30
2015,06,25,10,47,18.30
2015,06,25,10,48,18.20
2015,06,25,10,49,18.20
2015,06,25,10,50,18.20
2015,06,25,10,51,18.20
2015,06,25,10,52,18.20
2015,06,25,10,53,18.20
2015,06,25,10,54,18.20
2015,06,25,10,55,18.20
2015,06,25,10,56,18.20
2015,06,25,10,57,18.20
2015,06,25,10,58,18.10
2015,06,25,10,59,18.10
2015,06,25,11,00,18.10
2015,06,25,11,01,18.10
2015,06,25,11,02,18.10
2015,06,25,11,03,18.10
2015,06,25,11,04,18.10
2015,06,25,11,05,18.10
2015,06,25,11,06,18.10
2015,06,25,11,07,18.10
2015,06,25,11,08,18.10
2015,06,25,11,09,18.10
2015,06,25,11,10,18.10
2015,06,25,11,11,18.10
2015,06,25,11,12,18.10
2015,06,25,11,13,18.20
2015,06,25,11,14,18.20
2015,06,25,11,15,18.20
2015,06,25,11,16,18.20
2015,06,25,11,17,18.20
2015,06,25,11,18,18.30
2015,06,25,11,19,18.30
2015,06,25,11,20,18.30
2015,06,25,11,21,18.40
2015,06,25,11,22,18.40
2015,06,25,11,23,18.40
2015,06,25,11,24,18.40
2015,06,25,11,25,18.40
2015,06,25,11,26,18.40
2015,06,25,11,27,18.40
2015,06,25,11,28,18.40
2015,06,25,11,29,18.40
2015,06,25,11,30,18.40
2015,06,25,11,31,18.50
2015,06,25,11,32,18.50
2015,06,25,11,33,18.50
2015,06,25,11,34,18.50
2015,06,25,11,35,18.60
2015,06,25,11,36,18.60
2015,06,25,11,37,18.60
2015,06,25,11,38,18.70
2015,06,25,11,39,18.70
2015,06,25,11,40,18.70
2015,06,25,11,41,18.70
2015,06,25,11,42,18.80
2015,06,25,11,43,18.80
2015,06,25,11,44,18.80
2015,06,25,11,45,18.90
2015,06,25,11,46,18.90
2015,06,25,11,47,19.00
2015,06,25,11,48,19.10
2015,06,25,11,49,19.20
2015,06,25,11,50,19.20
2015,06,25,11,51,19.20
2015,06,25,11,52,19.30
2015,06,25,11,53,19.30
2015,06,25,11,54,19.30
2015,06,25,11,55,19.30
2015,06,25,11,56,19.40
2015,06,25,11,57,19.40
2015,06,25,11,58,19.30
2015,06,25,11,59,19.30
2015,06,25,12,00,19.30
2015,06,25,12,01,19.40
2015,06,25,12,02,19.30
2015,06,25,12,03,19.30
2015,06,25,12,04,19.30
2015,06,25,12,05,19.30
2015,06,25,12,06,19.30
2015,06,25,12,07,19.40
2015,06,25,12,08,19.40
2015,06,25,12,09,19.50
2015,06,25,12,10,19.50
2015,06,25,12,11,19.50
2015,06,25,12,12,19.50
2015,06,25,12,13,19.50
2015,06,25,12,14,19.50
2015,06,25,12,15,19.60
2015,06,25,12,16,19.60
2015,06,25,12,17,19.60
2015,06,25,12,18,19.60
2015,06,25,12,19,19.70
2015,06,25,12,20,19.70
2015,06,25,12,21,19.70
2015,06,25,12,22,19.70
2015,06,25,12,23,19.60
2015,06,25,12,24,19.50
2015,06,25,12,25,19.50
2015,06,25,12,26,19.40
2015,06,25,12,27,19.40
2015,06,25,12,28,19.40
2015,06,25,12,29,19.40
2015,06,25,12,30,19.40
2015,06,25,12,31,19.50
2015,06,25,12,32,19.60
2015,06,25,12,33,19.60
2015,06,25,12,34,19.60
2015,06,25,12,35,19.70
2015,06,25,12,36,19.70
2015,06,25,12,37,19.70
2015,06,25,12,38,19.70
2015,06,25,12,39,19.70
2015,06,25,12,40,19.70
2015,06,25,12,41,19.70
2015,06,25,12,42,19.70
2015,06,25,12,43,19.70
2015,06,25,12,44,19.70
2015,06,25,12,45,19.80
2015,06,25,12,46,19.90
2015,06,25,12,47,20.00
2015,06,25,12,48,20.00
2015,06,25,12,49,20.00
2015,06,25,12,50,20.00
2015,06,25,12,51,20.00
2015,06,25,12,52,20.00
2015,06,25,12,53,20.00
2015,06,25,12,54,20.00
2015,06,25,12,55,20.10
2015,06,25,12,56,20.10
2015,06,25,12,57,20.20
2015,06,25,12,58,20.20
2015,06,25,12,59,20.10
2015,06,25,13,00,20.00
2015,06,25,13,01,19.90
2015,06,25,13,02,19.80
2015,06,25,13,03,19.80
2015,06,25,13,04,19.80
2015,06,25,13,05,19.70
2015,06,25,13,06,19.70
2015,06,25,13,07,19.70
2015,06,25,13,08,19.70
2015,06,25,13,09,19.70
2015,06,25,13,10,19.70
2015,06,25,13,11,19.80
2015,06,25,13,12,19.80
2015,06,25,13,13,20.00
2015,06,25,13,14,20.10
2015,06,25,13,15,20.20
2015,06,25,13,16,20.30
2015,06,25,13,17,20.30
2015,06,25,13,18,20.30
2015,06,25,13,19,20.40
2015,06,25,13,20,20.40
2015,06,25,13,21,20.30
2015,06,25,13,22,20.30
2015,06,25,13,23,20.30
2015,06,25,13,24,20.20
2015,06,25,13,25,20.30
2015,06,25,13,26,20.30
2015,06,25,13,27,20.40
2015,06,25,13,28,20.50
2015,06,25,13,29,20.40
2015,06,25,13,30,20.40
2015,06,25,13,31,20.40
2015,06,25,13,32,20.40
2015,06,25,13,33,20.40
2015,06,25,13,34,20.50
2015,06,25,13,35,20.60
2015,06,25,13,36,20.70
2015,06,25,13,37,20.80
2015,06,25,13,38,20.80
2015,06,25,13,39,20.80
2015,06,25,13,40,20.80
2015,06,25,13,41,20.70
2015,06,25,13,42,20.60
2015,06,25,13,43,20.60
2015,06,25,13,44,20.60
2015,06,25,13,45,20.60
2015,06,25,13,46,20.60
2015,06,25,13,47,20.60
2015,06,25,13,48,20.70
2015,06,25,13,49,20.70
2015,06,25,13,50,20.80
2015,06,25,13,51,20.90
2015,06,25,13,52,20.90
2015,06,25,13,53,20.90
2015,06,25,13,54,20.90
2015,06,25,13,55,20.90
2015,06,25,13,56,20.80
2015,06,25,13,57,20.80
2015,06,25,13,58,20.90
2015,06,25,13,59,21.00
2015,06,25,14,00,21.10
2015,06,25,14,01,21.20
2015,06,25,14,02,21.20
2015,06,25,14,03,21.30
2015,06,25,14,04,21.40
2015,06,25,14,05,21.40
2015,06,25,14,06,21.40
2015,06,25,14,07,21.30
2015,06,25,14,08,21.30
2015,06,25,14,09,21.30
2015,06,25,14,10,21.20
2015,06,25,14,11,21.20
2015,06,25,14,12,21.20
2015,06,25,14,13,21.20
2015,06,25,14,14,21.30
2015,06,25,14,15,21.30
2015,06,25,14,16,21.20
2015,06,25,14,17,21.20
2015,06,25,14,18,21.20
2015,06,25,14,19,21.20
2015,06,25,14,20,21.20
2015,06,25,14,21,21.20
2015,06,25,14,22,21.10
2015,06,25,14,23,21.00
2015,06,25,14,24,21.00
2015,06,25,14,25,21.00
2015,06,25,14,26,21.00
2015,06,25,14,27,21.10
2015,06,25,14,28,21.10
2015,06,25,14,29,21.10
2015,06,25,14,30,21.10
2015,06,25,14,31,21.00
2015,06,25,14,32,21.00
2015,06,25,14,33,21.00
2015,06,25,14,34,21.00
2015,06,25,14,35,21.10
2015,06,25,14,36,21.10
2015,06,25,14,37,21.20
2015,06,25,14,38,21.30
2015,06,25,14,39,21.30
2015,06,25,14,40,21.20
2015,06,25,14,41,21.20
2015,06,25,14,42,21.20
2015,06,25,14,43,21.10
2015,06,25,14,44,21.10
2015,06,25,14,45,21.10
2015,06,25,14,46,21.10
2015,06,25,14,47,21.20
2015,06,25,14,48,21.20
2015,06,25,14,49,21.30
2015,06,25,14,50,21.30
2015,06,25,14,51,21.40
2015,06,25,14,52,21.50
2015,06,25,14,53,21.50
2015,06,25,14,54,21.50
2015,06,25,14,55,21.50
2015,06,25,14,56,21.60
2015,06,25,14,57,21.60
2015,06,25,14,58,21.60
2015,06,25,14,59,21.60
2015,06,25,15,00,21.60
2015,06,25,15,01,21.60
2015,06,25,15,02,21.60
2015,06,25,15,03,21.60
2015,06,25,15,04,21.70
2015,06,25,15,05,21.70
2015,06,25,15,06,21.70
2015,06,25,15,07,21.70
2015,06,25,15,08,21.80
2015,06,25,15,09,22.00
2015,06,25,15,10,22.10
2015,06,25,15,11,22.20
2015,06,25,15,12,22.20
2015,06,25,15,13,22.10
2015,06,25,15,14,22.00
2015,06,25,15,15,21.90
2015,06,25,15,16,22.00
2015,06,25,15,17,22.00
2015,06,25,15,18,22.10
2015,06,25,15,19,22.20
2015,06,25,15,20,22.20
2015,06,25,15,21,22.10
2015,06,25,15,22,22.00
2015,06,25,15,23,22.00
2015,06,25,15,24,22.00
2015,06,25,15,25,22.10
2015,06,25,15,26,22.20
2015,06,25,15,27,22.20
2015,06,25,15,28,22.30
2015,06,25,15,29,22.40
2015,06,25,15,30,22.40
2015,06,25,15,31,22.50
2015,06,25,15,32,22.50
2015,06,25,15,33,22.60
2015,06,25,15,34,22.80
2015,06,25,15,35,22.80
2015,06,25,15,36,22.80
2015,06,25,15,37,22.70
2015,06,25,15,38,22.70
2015,06,25,15,39,22.60
2015,06,25,15,40,22.50
2015,06,25,15,41,22.40
2015,06,25,15,42,22.30
2015,06,25,15,43,22.20
2015,06,25,15,44,22.20
2015,06,25,15,45,22.20
2015,06,25,15,46,22.30
2015,06,25,15,47,22.40
2015,06,25,15,48,22.50
2015,06,25,15,49,22.60
2015,06,25,15,50,22.70
2015,06,25,15,51,22.70
2015,06,25,15,52,22.70
2015,06,25,15,53,22.60
2015,06,25,15,54,22.60
2015,06,25,15,55,22.60
2015,06,25,15,56,22.60
2015,06,25,15,57,22.60
2015,06,25,15,58,22.60
2015,06,25,15,59,22.60
2015,06,25,16,00,22.50
2015,06,25,16,01,22.40
2015,06,25,16,02,22.40
2015,06,25,16,03,22.40
2015,06,25,16,04,22.50
2015,06,25,16,05,22.50
2015,06,25,16,06,22.60
2015,06,25,16,07,22.70
2015,06,25,16,08,22.80
2015,06,25,16,09,23.00
2015,06,25,16,10,23.00
2015,06,25,16,11,23.00
2015,06,25,16,12,23.00
2015,06,25,16,13,23.00
2015,06,25,16,14,23.00
2015,06,25,16,15,23.00
2015,06,25,16,16,23.00
2015,06,25,16,17,23.00
2015,06,25,16,18,22.90
2015,06,25,16,19,22.90
2015,06,25,16,20,22.90
2015,06,25,16,21,22.90
2015,06,25,16,22,22.90
2015,06,25,16,23,22.90
2015,06,25,16,24,23.00
2015,06,25,16,25,23.10
2015,06,25,16,26,23.20
2015,06,25,16,27,23.20
2015,06,25,16,28,23.20
2015,06,25,16,29,23.20
2015,06,25,16,30,23.20
2015,06,25,16,31,23.20
2015,06,25,16,32,23.20
2015,06,25,16,33,23.20
2015,06,25,16,34,23.10
2015,06,25,16,35,23.10
2015,06,25,16,36,23.10
2015,06,25,16,37,23.20
2015,06,25,16,38,23.10
2015,06,25,16,39,23.20
2015,06,25,16,40,23.20
2015,06,25,16,41,23.30
2015,06,25,16,42,23.30
2015,06,25,16,43,23.30
2015,06,25,16,44,23.30
2015,06,25,16,45,23.30
2015,06,25,16,46,23.30
2015,06,25,16,47,23.20
2015,06,25,16,48,23.20
2015,06,25,16,49,23.30
2015,06,25,16,50,23.30
2015,06,25,16,51,23.20
2015,06,25,16,52,23.10
2015,06,25,16,53,23.10
2015,06,25,16,54,23.10
2015,06,25,16,55,23.10
2015,06,25,16,56,23.10
2015,06,25,16,57,23.10
2015,06,25,16,58,23.20
2015,06,25,16,59,23.20
2015,06,25,17,00,23.20
2015,06,25,17,01,23.30
2015,06,25,17,02,23.40
2015,06,25,17,03,23.40
2015,06,25,17,04,23.50
2015,06,25,17,05,23.50
2015,06,25,17,06,23.50
2015,06,25,17,07,23.50
2015,06,25,17,08,23.50
2015,06,25,17,09,23.50
2015,06,25,17,10,23.60
2015,06,25,17,11,23.60
2015,06,25,17,12,23.60
2015,06,25,17,13,23.50
2015,06,25,17,14,23.50
2015,06,25,17,15,23.50
2015,06,25,17,16,23.50
2015,06,25,17,17,23.50
2015,06,25,17,18,23.60
2015,06,25,17,19,23.60
2015,06,25,17,20,23.70
2015,06,25,17,21,23.80
2015,06,25,17,22,23.90
2015,06,25,17,23,23.90
2015,06,25,17,24,23.90
2015,06,25,17,25,23.90
2015,06,25,17,26,23.90
2015,06,25,17,27,23.90
2015,06,25,17,28,23.90
2015,06,25,17,29,23.90
2015,06,25,17,30,23.80
2015,06,25,17,31,23.80
2015,06,25,17,32,23.80
2015,06,25,17,33,23.80
2015,06,25,17,34,23.80
2015,06,25,17,35,23.80
2015,06,25,17,36,23.70
2015,06,25,17,37,23.70
2015,06,25,17,38,23.60
2015,06,25,17,39,23.60
2015,06,25,17,40,23.60
2015,06,25,17,41,23.70
2015,06,25,17,42,23.70
2015,06,25,17,43,23.70
2015,06,25,17,44,23.70
2015,06,25,17,45,23.70
2015,06,25,17,46,23.70
2015,06,25,17,47,23.70
2015,06,25,17,48,23.70
2015,06,25,17,49,23.70
2015,06,25,17,50,23.80
2015,06,25,17,51,23.80
2015,06,25,17,52,23.80
2015,06,25,17,53,23.80
2015,06,25,17,54,23.80
2015,06,25,17,55,23.90
2015,06,25,17,56,23.90
2015,06,25,17,57,23.90
2015,06,25,17,58,23.90
2015,06,25,17,59,23.90
2015,06,25,18,00,23.90
2015,06,25,18,01,24.00
2015,06,25,18,02,24.00
2015,06,25,18,03,24.10
2015,06,25,18,04,24.10
2015,06,25,18,05,24.20
2015,06,25,18,06,24.20
2015,06,25,18,07,24.20
2015,06,25,18,08,24.20
2015,06,25,18,09,24.20
2015,06,25,18,10,24.20
2015,06,25,18,11,24.20
2015,06,25,18,12,24.20
2015,06,25,18,13,24.20
2015,06,25,18,14,24.20
2015,06,25,18,15,24.20
2015,06,25,18,16,24.30
2015,06,25,18,17,24.30